x

8452944 - Conimicut Light, Ri (cptr1) Weather Station

12:12 - Sun 24th Sep 2017 All times are EDT. -4 hours from GMT.

  • Wind
    3mph, 5mph gusts
  • Sea Temp 67°f
  • Ar Temp 65°f
  • Sea Pressure 1016.7mb
  • 8452944 - Conimicut Light, Ri
  • 8452944 - Conimicut Light, Ri

More Historic Weather Station data

Upgrade to MSW Pro to gain access to the past 30 days of data for over 8000 Wavebouys and Weather Stations around the globe.

Join

Comparision Forecast

View Surf forecast
   
Dom 09/24 12:12 3 5 mph 1016.7mb 67f 65f
12:06 5 6 mph 1016.8mb 67f 65f
12:00 5 6 mph 1016.8mb 67f 65f
Sáb 09/23 11:54 5 5 mph 1016.8mb 67f 65f
11:48 3 5 mph - - -
11:42 3 3 mph 1016.7mb 67f 65f
11:36 3 5 mph 1016.8mb 67f 65f
11:30 3 5 mph 1016.9mb 67f 65f
11:24 3 3 mph 1016.9mb 67f 65f
11:18 3 3 mph 1017mb 67f 65f
11:12 2 3 mph 1017mb 67f 65f
11:06 3 5 mph 1016.9mb 67f 65f
11:00 3 5 mph 1016.9mb 67f 66f
10:54 5 5 mph 1016.9mb 67f 66f
10:48 5 6 mph 1016.8mb 67f 66f
10:42 6 6 mph 1016.8mb 67f 66f
10:36 6 6 mph 1016.8mb 67f 66f
10:30 6 6 mph 1016.8mb 67f 66f
10:24 5 5 mph 1016.9mb 67f 66f
10:18 5 5 mph - - -
10:12 5 5 mph 1016.7mb 67f 66f
10:06 5 5 mph 1016.7mb 67f 66f
10:00 3 3 mph 1016.8mb 67f 67f
9:54 2 3 mph 1016.9mb 67f 67f
9:48 3 5 mph - - -
9:42 5 6 mph 1017mb 67f 67f
9:36 6 6 mph 1016.9mb 67f 67f
9:30 5 6 mph 1016.9mb 67f 67f
9:24 5 6 mph 1016.9mb 67f 67f
9:18 6 6 mph 1016.9mb - -
9:12 6 6 mph 1016.8mb 67f 67f
9:06 3 5 mph 1016.8mb 67f 68f
9:00 3 5 mph 1016.7mb 67f 68f
8:48 3 3 mph - - -
8:42 2 3 mph 1016.6mb 67f 68f
8:36 3 5 mph 1016.7mb 67f 69f
8:30 3 3 mph 1016.6mb 67f 69f
8:24 3 5 mph 1016.6mb 67f 69f
8:18 3 5 mph 1016.6mb - -
8:12 2 3 mph 1016.6mb 68f 69f
8:06 2 5 mph 1016.5mb 68f 69f
8:00 3 5 mph 1016.4mb 68f 69f
7:54 2 3 mph 1016.2mb 68f 69f
7:48 3 6 mph 1016.2mb 68f 69f
7:42 5 7 mph 1016.1mb 68f 70f
7:36 6 7 mph 1016mb 68f 70f
7:30 6 7 mph 1016mb 68f 71f
7:24 6 7 mph 1016mb 68f 71f
7:18 6 8 mph 1015.8mb - -
7:12 7 8 mph 1015.6mb 68f 72f
7:06 7 7 mph 1015.6mb 68f 72f
7:00 6 6 mph 1015.5mb 67f 73f
6:54 6 6 mph 1015.6mb 67f 73f
6:48 6 7 mph - - -
6:42 6 8 mph 1015.6mb 67f 73f
6:36 7 8 mph 1015.6mb 67f 74f
6:30 7 8 mph 1015.6mb 67f 74f
6:24 7 8 mph 1015.5mb 67f 75f
6:18 9 9 mph - - -
6:12 8 10 mph 1015.3mb 67f 76f
6:06 8 10 mph 1015.3mb 67f 76f
6:00 10 13 mph 1015.3mb 67f 77f
5:54 10 11 mph 1015.4mb 67f 77f
5:48 10 11 mph 1015.3mb - -
5:42 9 10 mph 1015.2mb 67f 78f
5:36 8 10 mph 1015.2mb 67f 78f
5:30 8 14 mph 1015.3mb 67f 79f
5:24 10 14 mph 1015.2mb 67f 78f
5:18 13 15 mph 1015.1mb 67f 78f
5:12 11 14 mph 1015mb 67f 79f
5:06 10 14 mph 1015mb 67f 79f
5:00 14 16 mph 1015mb 67f 78f
4:54 13 15 mph 1015mb 67f 78f
4:48 14 16 mph 1014.9mb 67f 78f
4:42 11 15 mph 1014.9mb 67f 78f
4:36 11 14 mph 1014.9mb 67f 79f
4:30 11 14 mph 1015mb 67f 79f
4:24 9 15 mph 1015mb 67f 78f
4:18 13 15 mph 1014.9mb 67f 78f
4:12 9 13 mph 1015mb 68f 77f
4:06 10 13 mph 1015.1mb 67f 77f
4:00 9 16 mph 1015.1mb 67f 77f
3:54 10 14 mph 1015.1mb 67f 77f
3:48 8 13 mph 1015.1mb 67f 77f
3:42 10 13 mph 1015.2mb 67f 77f
3:36 9 13 mph 1015.3mb 67f 77f
3:30 9 14 mph 1015.3mb 67f 76f
3:24 8 13 mph 1015.5mb 67f 76f
3:18 11 14 mph 1015.4mb 67f 76f
3:12 13 15 mph 1015.4mb 67f 75f
3:06 13 15 mph 1015.4mb 67f 75f
3:00 11 16 mph 1015.4mb 67f 75f
2:54 15 17 mph 1015.3mb 67f 75f
2:48 13 18 mph 1015.3mb 67f 75f
2:42 13 18 mph 1015.3mb 67f 75f
2:36 17 21 mph 1015.3mb 67f 74f
2:30 15 21 mph 1015.4mb 67f 74f
2:24 14 20 mph 1015.4mb 67f 74f
2:18 15 20 mph 1015.4mb 67f 74f
2:12 15 18 mph 1015.5mb 67f 74f
2:06 15 21 mph 1015.7mb 67f 73f
2:00 10 13 mph 1015.8mb 67f 73f
1:54 10 16 mph 1015.7mb 67f 73f
1:48 16 18 mph 1015.6mb 67f 73f
1:42 14 18 mph 1015.6mb 67f 73f
1:36 14 18 mph 1015.7mb 67f 73f
1:30 16 21 mph 1015.6mb 67f 72f
1:24 14 17 mph 1015.7mb 67f 72f
1:18 11 16 mph 1015.6mb 67f 72f
1:12 14 16 mph 1015.6mb 67f 71f
1:06 15 17 mph 1015.6mb 67f 71f
1:00 13 16 mph 1015.7mb 67f 71f
12:54 7 11 mph 1015.8mb 67f 71f
12:48 7 11 mph 1015.8mb 67f 71f
12:42 10 14 mph 1015.7mb 67f 70f
12:36 11 13 mph 1015.8mb 67f 70f
12:30 9 11 mph 1015.9mb 67f 70f
12:24 13 15 mph 1015.8mb 67f 70f
12:18 9 17 mph 1015.8mb 67f 70f
12:12 11 18 mph 1015.9mb 67f 69f
12:06 14 20 mph 1015.9mb 67f 69f
12:00 18 21 mph 1015.9mb 67f 68f
11:54 15 20 mph 1016mb 67f 68f
11:48 16 20 mph 1016mb 67f 68f
11:42 14 17 mph 1016.1mb 67f 68f
11:36 15 18 mph 1016.1mb 67f 68f
11:30 15 21 mph 1016.2mb 67f 68f
11:24 18 23 mph 1016.1mb 66f 67f
11:18 20 22 mph 1016.1mb 66f 67f
11:12 14 20 mph 1016.2mb 66f 67f
11:06 17 22 mph 1016.1mb 66f 67f
11:00 17 21 mph 1016.1mb 66f 67f
10:54 16 18 mph 1016.2mb 66f 66f
10:48 16 20 mph 1016.2mb 66f 65f
10:42 17 22 mph 1016.1mb 66f 65f
10:36 18 22 mph 1016.1mb 66f 64f
10:30 20 24 mph 1016.1mb 66f 64f
10:24 22 25 mph 1016mb 66f 64f
10:18 21 25 mph 1016mb 66f 63f
10:12 21 24 mph 1015.9mb 66f 63f
10:06 22 24 mph 1016mb 66f 63f
10:00 20 23 mph 1016mb - -
9:54 20 22 mph 1015.8mb 66f 64f
9:48 18 21 mph 1015.9mb 66f 64f
9:42 16 18 mph 1015.8mb 66f 64f
9:36 16 18 mph 1015.7mb 66f 64f
9:30 17 22 mph 1015.7mb 66f 64f
9:24 16 18 mph 1015.7mb 66f 64f
9:18 16 21 mph 1015.7mb 66f 64f
9:12 14 18 mph 1015.6mb 66f 64f
9:06 15 17 mph 1015.4mb 66f 64f
9:00 13 17 mph 1015.4mb 66f 64f
8:54 14 17 mph 1015.4mb 66f 64f
8:48 15 18 mph 1015.3mb 66f 64f
8:42 10 16 mph 1015.3mb 66f 64f
8:36 13 16 mph 1015.1mb 66f 63f
8:30 13 15 mph 1015mb 66f 63f
8:24 15 21 mph 1015.1mb 66f 63f
8:18 15 16 mph 1015.2mb 66f 63f
8:12 14 17 mph 1015mb 66f 63f
8:06 13 18 mph 1014.9mb 66f 63f
8:00 14 17 mph 1014.8mb 66f 63f
7:54 16 20 mph 1014.7mb 66f 63f
7:48 17 22 mph 1014.6mb 66f 63f
7:42 17 26 mph 1014.6mb 66f 63f
7:36 18 23 mph 1014.6mb 66f 63f
7:30 18 22 mph 1014.7mb 66f 62f
7:24 15 20 mph 1014.7mb 66f 62f
7:18 15 22 mph 1014.6mb 66f 62f
7:12 18 21 mph 1014.5mb 66f 62f
7:06 17 21 mph 1014.4mb 66f 62f
7:00 15 23 mph 1014.4mb 66f 62f
6:54 16 24 mph 1014.4mb 66f 62f
6:48 20 23 mph 1014.5mb 66f 62f
6:42 17 22 mph 1014.5mb 66f 62f
6:36 18 23 mph 1014.5mb 66f 62f
6:30 20 23 mph 1014.6mb 66f 62f
6:24 20 26 mph 1014.7mb 66f 63f
6:18 20 26 mph 1014.7mb 66f 63f
6:12 22 24 mph 1014.5mb 66f 63f
6:06 22 26 mph 1014.4mb 67f 63f
6:00 22 26 mph 1014.3mb 67f 63f
5:54 21 25 mph 1014.2mb 67f 63f
5:48 20 24 mph 1014.3mb 67f 63f
5:42 23 26 mph 1014.1mb 67f 63f
5:36 21 24 mph 1014mb 67f 63f
5:30 20 24 mph 1014.1mb 67f 63f
5:24 18 25 mph 1014mb 67f 63f
5:18 20 24 mph 1014.1mb 67f 62f
5:12 18 25 mph 1014mb 67f 63f
5:06 22 26 mph 1014mb 67f 62f
5:00 20 24 mph 1014mb 67f 63f
4:54 18 23 mph 1014.1mb 67f 62f
4:48 18 22 mph 1014.2mb 67f 62f
4:42 14 20 mph 1014.1mb 67f 62f
4:36 17 23 mph 1014.1mb 67f 63f
4:30 22 29 mph 1013.9mb 67f 63f
4:24 24 32 mph 1013.7mb 67f 63f
4:18 18 26 mph 1013.9mb 67f 63f
4:12 20 25 mph 1013.9mb 67f 63f
4:06 24 30 mph 1013.8mb 67f 63f
4:00 23 29 mph 1013.7mb 67f 63f
3:54 26 33 mph 1013.6mb 67f 63f
3:48 26 31 mph 1013.4mb 67f 63f
3:42 22 25 mph 1013.7mb 67f 63f
3:36 23 29 mph 1013.8mb 67f 63f
3:30 22 26 mph 1013.8mb 67f 63f
3:24 22 29 mph 1013.6mb 67f 63f
3:18 21 25 mph - - -
3:12 23 32 mph 1013.5mb 67f 63f
3:06 23 31 mph 1013.4mb 67f 63f
3:00 24 30 mph 1013.4mb 67f 63f
2:54 22 28 mph 1013.4mb 67f 63f
2:48 21 29 mph 1013.6mb 67f 63f
2:42 22 29 mph 1013.5mb - -
2:36 20 29 mph 1013.5mb - -
2:30 23 29 mph 1013.6mb 67f 63f
2:24 22 29 mph 1013.7mb 67f 63f
2:18 21 28 mph 1013.7mb 67f 63f
2:12 22 28 mph 1013.6mb 67f 63f
2:06 22 26 mph 1013.6mb 67f 63f
2:00 23 29 mph 1013.6mb 67f 63f
1:54 24 29 mph 1013.6mb 67f 63f
1:48 22 29 mph 1013.6mb 67f 63f
1:42 18 28 mph 1013.6mb 67f 63f
1:36 20 24 mph 1013.9mb 67f 63f
1:30 23 29 mph 1013.8mb 67f 63f
1:24 22 31 mph 1013.9mb 67f 63f
1:18 23 33 mph 1013.7mb 67f 63f
1:12 21 26 mph 1013.8mb 67f 63f
1:06 21 30 mph 1013.7mb 67f 63f
1:00 23 28 mph 1013.7mb 67f 63f
12:54 20 23 mph 1013.7mb 67f 63f
12:48 20 24 mph 1013.6mb 67f 63f
12:42 22 29 mph 1013.5mb 67f 63f
12:36 22 26 mph 1013.6mb 67f 63f
12:30 22 30 mph 1013.6mb 67f 63f
12:24 22 29 mph 1013.7mb 67f 63f
12:18 20 23 mph 1013.6mb 67f 63f
12:12 20 24 mph 1013.7mb 67f 62f
12:06 20 24 mph 1013.6mb 67f 62f
12:00 17 22 mph 1013.6mb 67f 62f
Sex 09/22 11:54 17 25 mph 1013.8mb 67f 62f
11:48 18 25 mph 1013.8mb - -
11:42 22 26 mph 1013.7mb 67f 62f
11:36 17 24 mph 1013.7mb 67f 62f
11:30 18 25 mph 1013.8mb 67f 62f
11:24 20 24 mph 1013.7mb 67f 62f
11:18 20 26 mph 1013.7mb 67f 62f
11:12 22 25 mph 1013.8mb 67f 62f
11:06 21 25 mph 1013.9mb 67f 62f
11:00 21 25 mph 1013.9mb 67f 62f
10:54 20 24 mph 1013.8mb 67f 62f
10:48 22 26 mph 1013.8mb 66f 62f
10:42 22 26 mph 1013.7mb 66f 62f
10:36 22 26 mph 1013.7mb 66f 62f
10:30 20 25 mph 1013.7mb 66f 62f
10:24 20 24 mph 1013.8mb 66f 62f
10:18 23 26 mph - - -
10:12 22 30 mph 1013.9mb 66f 61f
10:06 22 29 mph 1013.9mb 67f 62f
10:00 22 26 mph 1013.9mb 67f 61f
9:54 21 25 mph 1013.9mb 67f 61f
9:48 21 25 mph 1013.9mb 67f -
9:42 22 25 mph 1013.9mb 67f 61f
9:36 20 25 mph 1013.8mb 67f 61f
9:30 22 29 mph 1013.8mb 67f 61f
9:24 26 31 mph 1013.9mb 67f 61f
9:18 23 28 mph - - -
9:12 24 30 mph 1014.1mb 67f 61f
9:06 22 30 mph 1013.8mb 67f 61f
9:00 25 29 mph 1013.7mb 67f 61f
8:54 25 30 mph 1013.5mb 67f 61f
8:48 24 30 mph 1013.5mb - -
8:42 26 34 mph 1013.7mb 67f 61f
8:36 28 37 mph 1013.8mb 67f 61f
8:30 24 32 mph 1013.7mb 67f 61f
8:24 26 33 mph 1013.6mb 67f 61f
8:18 29 34 mph 1013.7mb - -
8:12 28 36 mph 1013.6mb 67f 61f
8:06 23 31 mph 1013.5mb 67f 61f
8:00 25 37 mph 1013.4mb 67f 61f
7:54 23 30 mph 1013.5mb 67f 61f
7:48 22 29 mph 1013.5mb - -
7:42 28 34 mph 1013.5mb 67f 61f
7:36 23 28 mph 1013.5mb 67f 61f
7:30 26 33 mph 1013.4mb 67f 61f
7:24 25 31 mph 1013.3mb 67f 61f
7:18 25 29 mph - - -
7:12 25 36 mph 1013.1mb 67f 61f
7:06 25 31 mph 1013.2mb 67f 61f
7:00 29 33 mph 1013.2mb - -
6:54 24 29 mph 1013.2mb 67f 61f
6:48 28 37 mph 1013.1mb 67f -
6:42 26 32 mph 1013.1mb 67f 61f
6:36 26 34 mph 1013.1mb 67f 61f
6:30 25 31 mph 1013.2mb 67f 61f
6:24 24 30 mph 1013.3mb 67f 61f
6:18 25 31 mph - - -
6:12 25 34 mph 1013.2mb 67f 61f
6:06 28 33 mph 1013.3mb 67f 61f
6:00 26 33 mph 1013.3mb 67f 61f
5:54 30 37 mph 1013.3mb 67f 61f
5:48 25 34 mph - - -
5:42 28 33 mph 1013.3mb 67f 60f
5:36 25 37 mph 1013.4mb 67f 60f
5:30 25 34 mph 1013.3mb 67f 60f
5:24 29 36 mph 1013.3mb 67f 60f
5:18 30 34 mph 1013.2mb 67f 61f
5:12 30 37 mph 1013.2mb 67f 61f
5:06 28 37 mph 1013.2mb 67f 61f
5:00 24 32 mph 1013.2mb 67f 61f
4:54 28 32 mph 1013.3mb 67f 60f
4:48 23 34 mph 1013.4mb 67f 60f
4:42 26 30 mph 1013.3mb 67f 61f
4:36 29 34 mph 1013.2mb 67f 61f
4:30 26 37 mph 1013.3mb 67f 61f
4:24 31 39 mph 1013.2mb 67f 61f
4:18 30 36 mph 1013.1mb 67f 60f
4:12 26 37 mph 1013.2mb 67f 61f
4:06 28 32 mph 1013.1mb 67f 61f
4:00 29 39 mph 1013.1mb 67f 61f
3:54 24 38 mph 1013.2mb 67f 61f
3:48 30 37 mph 1013.2mb 67f 61f
3:42 29 32 mph 1013.3mb 67f 61f
3:36 29 37 mph 1013.3mb 67f 61f
3:30 25 37 mph 1013.3mb 67f 61f
3:24 25 32 mph 1013.2mb 67f 61f
3:18 26 33 mph 1013.4mb 67f 61f
3:12 28 33 mph 1013.3mb 67f 61f
3:06 25 37 mph 1013.3mb 67f 61f
3:00 24 33 mph 1013.3mb 67f 61f
2:54 28 34 mph 1013.3mb 67f 61f
2:48 29 36 mph 1013.3mb 67f 61f
2:42 25 36 mph 1013.2mb 67f 61f
2:36 28 37 mph 1013.3mb 67f 60f
2:30 28 39 mph 1013.4mb 67f 61f
2:24 24 37 mph 1013.3mb 67f 60f
2:18 24 30 mph 1013.4mb 67f 60f
2:12 24 34 mph 1013.4mb 67f 60f
2:06 24 34 mph 1013.5mb 67f 60f
2:00 25 33 mph 1013.5mb 67f 60f
1:54 22 29 mph 1013.7mb 67f 60f
1:48 22 29 mph - - -
1:42 26 33 mph 1013.8mb 67f 60f
1:36 25 30 mph 1013.9mb 67f 60f
1:30 24 30 mph 1013.8mb 67f 60f
1:24 22 30 mph 1013.9mb 67f 60f
1:18 25 30 mph 1014mb 67f 60f
1:12 22 26 mph 1014.1mb 67f 60f
1:06 22 28 mph 1014.1mb 67f 60f
1:00 23 29 mph 1014.1mb 67f 60f
12:54 22 28 mph 1014.1mb 67f 60f
12:48 23 29 mph 1014.2mb 67f 60f
12:42 25 31 mph 1014.1mb 67f 60f
12:36 24 28 mph 1014mb 67f 60f
12:30 24 31 mph 1014.1mb 67f 60f
12:24 25 30 mph 1014.2mb 67f 60f
12:18 24 29 mph 1014.1mb 67f 60f
12:12 24 29 mph 1014mb 67f 59f
12:06 24 30 mph 1013.9mb 67f 60f
12:00 24 31 mph 1014mb 67f 59f
11:54 25 32 mph 1014mb 67f 59f
11:48 24 29 mph 1014mb 67f 59f
11:42 28 33 mph 1013.9mb 67f 59f
11:36 24 32 mph 1013.9mb 67f 59f
11:30 30 38 mph 1013.9mb 67f 59f
11:24 24 29 mph 1014.1mb 67f 59f
11:18 28 33 mph 1014.2mb 67f 59f
11:12 25 30 mph 1014.2mb 67f 59f
11:06 28 36 mph 1014.2mb 67f 59f
11:00 28 36 mph 1014mb 67f 59f
10:54 29 37 mph 1014mb 67f 59f
10:48 24 34 mph 1014.2mb 67f 59f
10:42 26 33 mph 1014.2mb 67f 59f
10:36 23 34 mph 1014.3mb 67f 59f
10:30 28 36 mph 1014.1mb 67f 59f
10:24 24 32 mph 1014.1mb 67f 59f
10:18 26 37 mph 1013.9mb 67f 59f
10:12 28 32 mph 1013.9mb 67f 59f
10:06 28 37 mph 1014mb 67f 59f
10:00 26 34 mph 1014mb 67f 59f
9:54 28 37 mph 1014.2mb 67f 59f
9:48 26 33 mph 1014.3mb 67f 59f
9:42 30 38 mph 1014.1mb 67f 59f
9:36 28 36 mph 1014.2mb 67f 59f
9:30 24 37 mph 1014.2mb 67f 59f
9:24 24 33 mph 1014.1mb 67f 59f
9:18 30 37 mph 1013.9mb 67f 59f
9:12 28 33 mph 1013.7mb 67f 59f
9:06 25 31 mph 1013.7mb 67f 59f
9:00 30 37 mph 1013.6mb 67f 59f
8:54 31 40 mph 1013.5mb 67f 59f
8:48 31 37 mph 1013.5mb 67f 59f
8:42 25 40 mph 1013.6mb 67f 59f
8:36 28 36 mph 1013.7mb 67f 59f
8:30 25 34 mph 1013.7mb 67f 59f
8:24 28 34 mph 1013.6mb 67f 59f
8:18 26 36 mph 1013.6mb 67f 59f
8:12 28 36 mph 1013.5mb 67f 59f
8:06 25 34 mph 1013.7mb 67f 59f
8:00 26 34 mph 1013.5mb 67f 59f
7:54 30 36 mph 1013.5mb 67f 59f
7:48 32 41 mph 1013.4mb 67f 59f
7:42 29 37 mph 1013.4mb 67f 59f
7:36 32 39 mph 1013.5mb 67f 59f
7:30 29 37 mph 1013.5mb 67f 60f
7:24 28 40 mph 1013.4mb 67f 60f
7:18 28 33 mph 1013.4mb 67f 60f
7:12 30 40 mph 1013.5mb 67f 60f
7:06 28 38 mph 1013.6mb 67f 60f
7:00 28 34 mph 1013.7mb 67f 60f
6:54 31 43 mph 1013.7mb 67f 60f
6:48 26 36 mph 1013.6mb 67f 60f
6:42 29 37 mph 1013.5mb 67f 60f
6:36 31 37 mph 1013.4mb 67f 60f
6:30 30 37 mph 1013.3mb 67f 60f
6:24 30 34 mph 1013.4mb 67f 60f
6:18 30 39 mph 1013.4mb 67f 60f
6:12 30 38 mph 1013.3mb 67f 60f
6:06 26 34 mph 1013.3mb 67f 60f
6:00 29 38 mph 1013.3mb 68f 60f
5:54 32 39 mph 1013.2mb 68f 60f
5:48 25 34 mph 1013.2mb 68f 60f
5:42 28 36 mph 1013.2mb 68f 60f
5:36 26 36 mph 1013.3mb 68f 60f
5:30 30 41 mph 1013.3mb 68f 60f
5:24 29 37 mph 1013.2mb 68f 60f
5:18 25 36 mph 1013.2mb 68f 60f
5:12 29 38 mph 1013.1mb 68f 60f
5:06 32 40 mph 1013.2mb 68f 60f
5:00 30 40 mph 1013.3mb 68f 60f
4:54 26 32 mph 1013.3mb 68f 60f
4:48 29 43 mph 1013.2mb 68f 61f
4:42 28 36 mph 1013.2mb 68f 61f
4:36 26 38 mph 1013.1mb 68f 61f
4:30 29 43 mph 1013.2mb 68f 61f
4:24 25 38 mph 1013.3mb 68f 61f
4:18 26 36 mph 1013.1mb 68f 61f
4:12 29 40 mph 1013.3mb 68f 61f
4:06 30 38 mph 1013.1mb 68f 60f
4:00 30 40 mph 1013mb 68f 61f
3:54 30 45 mph 1013.1mb 68f 61f
3:48 29 36 mph 1013.1mb 68f 61f
3:42 29 39 mph 1013.1mb 68f 61f
3:36 26 36 mph 1013.2mb 68f 61f
3:30 29 36 mph 1013.3mb 68f 61f
3:24 30 39 mph 1013.4mb 68f 61f
3:18 25 34 mph - - -
3:12 23 40 mph 1013.4mb 68f 61f
3:06 29 40 mph 1013.3mb 68f 61f
3:00 32 41 mph 1013.3mb 68f 62f
2:54 31 47 mph 1013.1mb 68f 62f
2:48 29 37 mph 1013.2mb 68f 62f
2:42 26 37 mph 1013.1mb 68f 62f
2:36 28 34 mph 1013.3mb 68f 62f
2:30 31 39 mph 1013.4mb 68f 62f
2:24 29 39 mph 1013.5mb 68f 62f
2:18 31 38 mph 1013.5mb 68f 62f
2:12 31 37 mph 1013.4mb 68f 62f
2:06 26 41 mph 1013.6mb 68f 63f
2:00 30 38 mph 1013.6mb 68f 63f
1:54 29 39 mph 1013.8mb 68f 63f
1:48 32 40 mph 1013.8mb 68f 63f
1:42 29 38 mph 1013.9mb - -
1:36 32 43 mph 1013.9mb - -
1:30 34 43 mph 1013.7mb 68f 64f
1:24 31 40 mph 1013.8mb 68f 64f
1:18 31 46 mph 1013.9mb 68f 64f
1:12 36 43 mph 1014mb 68f 64f
1:06 31 41 mph 1013.9mb 68f 65f
1:00 29 40 mph 1014.1mb 68f 65f
12:54 34 44 mph 1014mb 68f 65f
12:48 30 39 mph 1013.9mb 68f 65f
12:42 29 41 mph 1013.8mb 68f 65f
12:36 30 44 mph 1013.7mb 68f 65f
12:30 31 41 mph 1013.6mb 68f 65f
12:24 32 41 mph 1013.7mb 68f 65f
12:18 30 47 mph 1013.8mb 68f 65f
12:12 32 41 mph 1013.8mb 68f 65f
12:06 30 39 mph 1013.9mb 68f 65f
12:00 28 37 mph 1013.8mb 68f 65f
Qui 09/21 11:54 30 38 mph 1013.9mb 68f 65f
11:48 30 36 mph 1014mb - -
11:42 32 38 mph 1013.9mb 68f 65f
11:36 33 45 mph 1013.8mb 68f 65f
11:30 31 43 mph 1014mb 68f 65f
11:24 32 47 mph 1013.6mb 68f 65f
11:18 33 44 mph 1013.8mb 68f 65f
11:12 34 46 mph 1013.8mb 68f 65f
11:06 39 46 mph 1014mb 68f 65f
11:00 26 38 mph 1014.4mb 68f 65f
10:54 33 41 mph 1014.1mb 68f 65f
10:48 34 52 mph 1014.1mb 68f 66f
10:42 32 40 mph 1014.2mb 68f 66f
10:36 38 47 mph 1014.1mb 68f 66f
10:30 26 48 mph 1014.3mb 68f 66f
10:24 31 38 mph 1014.3mb 68f 66f
10:18 29 44 mph - - -
10:12 31 44 mph 1014.3mb 69f 67f
10:06 25 32 mph 1014.5mb 69f 67f
10:00 21 32 mph 1014.8mb 69f 67f
9:54 28 36 mph 1014.7mb 69f 67f
9:48 24 32 mph 1014.6mb - -
9:42 28 33 mph 1014.6mb 68f 67f
9:36 22 25 mph 1014.8mb 68f 67f
9:30 23 32 mph 1014.9mb 68f 67f
9:24 22 29 mph 1014.8mb 68f 67f
9:18 24 29 mph - - -
9:12 22 30 mph 1014.7mb 68f 67f
9:06 21 29 mph 1015mb 68f 67f
9:00 20 28 mph 1015mb 68f 68f
8:54 25 31 mph 1014.8mb 68f 68f
8:48 25 33 mph - - -
8:42 22 39 mph 1014.6mb 68f 68f
8:36 22 33 mph 1014.4mb 68f 68f
8:30 22 31 mph 1014.6mb 68f 68f
8:24 23 31 mph 1014.5mb 68f 68f
8:18 23 29 mph 1014.5mb 68f 68f
8:12 23 32 mph 1014.4mb 68f 68f
8:06 23 29 mph 1014.5mb 68f 68f
8:00 25 31 mph 1014.6mb 68f 68f
7:54 22 32 mph 1014.7mb 68f 68f
7:48 22 32 mph 1014.7mb - -
7:42 21 28 mph 1014.8mb 68f 68f
7:36 20 29 mph 1014.9mb 68f 68f
7:30 24 31 mph 1014.8mb 69f 68f
7:24 25 31 mph 1014.6mb 69f 68f
7:18 22 28 mph - - -
7:12 22 29 mph 1014.5mb 69f 68f
7:06 25 32 mph 1014.4mb 69f 68f
7:00 24 31 mph 1014.2mb 69f 69f
6:54 28 36 mph 1014.2mb 69f 69f
6:48 25 34 mph 1014.1mb - -
6:42 23 29 mph 1014.1mb 69f 69f
6:36 22 29 mph 1014.1mb 69f 69f
6:30 22 29 mph 1014mb 69f 69f
6:24 24 29 mph 1014mb 69f 69f
6:18 22 30 mph - - -
6:12 25 32 mph 1013.9mb 69f 69f
6:06 24 34 mph 1013.9mb 69f 69f
6:00 24 33 mph 1013.8mb 69f 69f
5:54 22 30 mph 1013.9mb 69f 69f
5:48 24 30 mph 1013.9mb - -
5:42 26 34 mph 1013.8mb 69f 69f
5:36 24 31 mph 1013.8mb 69f 69f
5:30 28 36 mph 1013.9mb 69f 69f
5:24 21 32 mph 1014.1mb 69f 69f
5:18 26 37 mph 1014.1mb 69f 69f
5:12 23 32 mph 1014mb 69f 69f
5:06 26 33 mph 1013.9mb 69f 69f
5:00 30 40 mph 1013.9mb 69f 69f
4:54 28 39 mph 1014mb 69f 69f
4:48 32 44 mph - - -
4:42 34 46 mph 1013.7mb 69f 69f
4:36 32 38 mph 1013.5mb 69f 69f
4:30 24 38 mph 1013.7mb 69f 69f
4:24 26 40 mph 1013.5mb 69f 69f
4:18 32 40 mph 1013.4mb 69f 69f
4:12 32 38 mph 1013.4mb 69f 69f
4:06 32 40 mph 1013.6mb 69f 69f
4:00 36 45 mph 1013.4mb 69f 69f
3:54 29 39 mph 1013.7mb 69f 70f
3:48 24 37 mph 1013.7mb 69f 70f
3:42 32 44 mph 1013.6mb 69f 70f
3:36 30 44 mph 1013.6mb 69f 70f
3:30 30 40 mph 1013.8mb 69f 70f
3:24 29 48 mph 1014mb 69f 69f
3:18 37 44 mph 1013.7mb 69f 69f
3:12 33 41 mph 1014mb 69f 69f
3:06 37 49 mph 1014mb 69f 69f
3:00 28 43 mph 1014.1mb 69f 70f
2:54 34 48 mph 1014mb 69f 69f
2:48 26 38 mph 1014.1mb 69f 70f
2:42 33 43 mph 1014mb 69f 70f
2:36 25 40 mph 1013.9mb 69f 70f
2:30 33 41 mph 1013.8mb 69f 70f
2:24 29 45 mph 1013.7mb 69f 70f
2:18 31 38 mph 1013.5mb 69f 70f
2:12 28 40 mph 1013.8mb 69f 69f
2:06 36 44 mph 1013.5mb 69f 69f
2:00 29 37 mph 1013.6mb 69f 69f
1:54 26 34 mph 1013.8mb 69f 69f
1:48 33 41 mph 1013.6mb 69f 69f
1:42 32 43 mph 1013.7mb 69f 69f
1:36 31 40 mph 1013.7mb 69f 68f
1:30 24 34 mph 1014mb 69f 68f
1:24 28 38 mph 1014mb 69f 68f
1:18 26 38 mph 1014.2mb 69f 68f
1:12 28 41 mph 1014mb 69f 68f
1:06 32 41 mph 1013.9mb 69f 68f
1:00 30 38 mph 1014.1mb 69f 68f
12:54 29 36 mph 1014.2mb 69f 68f
12:48 33 41 mph 1014mb 69f 68f
12:42 29 37 mph 1014mb 69f 68f
12:36 31 37 mph 1014mb 69f 69f
12:30 28 34 mph 1014mb 69f 69f
12:24 26 38 mph 1014.1mb 69f 69f
12:18 30 38 mph 1014.1mb 69f 69f
12:12 28 37 mph 1014.1mb 69f 69f
12:06 26 32 mph 1014.1mb 69f 69f
12:00 28 34 mph 1014.2mb 69f 69f
11:54 26 37 mph 1014.1mb 69f 69f
11:48 29 36 mph 1014mb 69f 69f
11:42 25 34 mph 1014.2mb 69f 69f
11:36 28 41 mph 1014.1mb 69f 69f
11:30 28 33 mph 1014.1mb 69f 69f
11:24 29 34 mph 1014.2mb 69f 69f
11:18 25 32 mph 1014.3mb 69f 69f
11:12 23 33 mph 1014.3mb 69f 69f
11:06 25 36 mph 1014.3mb 69f 69f
11:00 23 34 mph 1014.3mb 69f 69f
10:54 26 37 mph 1014.2mb 69f 68f
10:48 32 39 mph 1014mb 69f 68f
10:42 25 36 mph 1014.2mb 69f 68f
10:36 32 39 mph 1014mb 69f 68f
10:30 28 36 mph 1014.1mb 69f 68f
10:24 21 26 mph 1014.3mb 69f 68f
10:18 22 29 mph 1014.2mb 69f 69f
10:12 28 34 mph 1014.1mb 69f 69f
10:06 25 33 mph 1014mb 69f 69f
10:00 23 33 mph 1013.8mb 69f 69f
9:54 25 36 mph 1013.7mb 69f 69f
9:48 28 38 mph 1013.6mb 69f 69f
9:42 24 33 mph 1013.6mb 69f 69f
9:36 24 30 mph 1013.6mb 69f 69f
9:30 24 41 mph 1013.6mb 69f 69f
9:24 31 40 mph 1013.1mb 68f 69f
9:18 24 34 mph 1013.3mb 68f 69f
9:12 30 38 mph 1013.1mb 68f 69f
9:06 36 44 mph 1012.9mb 68f 69f
9:00 28 37 mph 1012.9mb 68f 68f
8:54 30 38 mph 1012.9mb 68f 68f
8:48 24 36 mph 1013mb 68f 68f
8:42 31 43 mph 1013mb 68f 69f
8:36 30 39 mph 1012.9mb 68f 69f
8:30 31 41 mph 1012.8mb 68f 69f
8:24 29 44 mph 1012.9mb 68f 69f
8:18 25 33 mph 1012.8mb 68f 69f
8:12 26 41 mph 1012.8mb 69f 69f
8:06 31 37 mph 1012.7mb 69f 69f
8:00 29 41 mph 1012.7mb 69f 69f
7:54 25 37 mph 1012.6mb 69f 69f
7:48 32 41 mph 1012.3mb 69f 69f
7:42 25 30 mph 1012.5mb 69f 69f
7:36 26 38 mph 1012.5mb 69f 69f
7:30 25 33 mph 1012.3mb 69f 69f
7:24 24 33 mph 1012.3mb 69f 69f
7:18 25 39 mph 1012.3mb 69f 69f
7:12 28 41 mph 1012.1mb 69f 69f
7:06 32 41 mph 1011.9mb 69f 69f
7:00 32 37 mph 1011.9mb 69f 69f
6:54 28 45 mph 1011.9mb 69f 69f
6:48 34 43 mph 1011.4mb 69f 69f
6:42 26 39 mph 1011.8mb 69f 69f
6:36 28 37 mph 1011.8mb 69f 70f
6:30 31 39 mph 1011.6mb 69f 70f
6:24 29 37 mph 1011.6mb 69f 70f
6:18 32 45 mph 1011.4mb 69f 70f
6:12 26 36 mph 1011.4mb 69f 70f
6:06 31 40 mph 1011.2mb 69f 70f
6:00 24 33 mph 1011.2mb 69f 70f
5:54 28 38 mph 1011mb 69f 70f
5:48 25 33 mph 1011mb 69f 70f
5:42 28 37 mph 1010.9mb 69f 70f
5:36 31 46 mph 1010.7mb 69f 70f
5:30 26 36 mph 1010.8mb 69f 70f
5:24 26 38 mph 1010.7mb 69f 70f
5:18 26 37 mph 1010.7mb 69f 70f
5:12 30 43 mph 1010.5mb 69f 70f
5:06 31 38 mph 1010.5mb 69f 70f
5:00 32 44 mph 1010.4mb 69f 70f
4:54 26 38 mph 1010.4mb 69f 70f
4:48 29 40 mph 1010.4mb 69f 71f
4:42 29 37 mph 1010.2mb 69f 71f
4:36 29 38 mph 1010.1mb 69f 71f
4:30 26 48 mph 1010.2mb 69f 71f
4:24 25 34 mph 1010.1mb 70f 71f
4:18 28 37 mph 1010.1mb 70f 71f
4:12 25 33 mph 1010mb 70f 71f
4:06 26 41 mph 1010mb 70f 71f
4:00 24 43 mph 1009.7mb 70f 71f
3:54 32 37 mph 1009.5mb 70f 71f
3:48 24 37 mph 1009.7mb 70f 71f
3:42 23 34 mph 1009.9mb 70f 71f
3:36 26 38 mph 1009.8mb 70f 71f
3:30 25 31 mph 1009.8mb 70f 71f
3:24 29 34 mph 1009.9mb 70f 71f
3:18 24 37 mph 1009.8mb 70f 71f
3:12 26 41 mph 1009.7mb 70f 71f
3:06 29 37 mph 1009.6mb 70f 71f
3:00 29 34 mph 1009.6mb 70f 71f
2:54 30 37 mph 1009.6mb 70f 71f
2:48 28 36 mph - - -
2:42 31 44 mph 1009.7mb 70f 71f
2:36 29 39 mph 1009.8mb 70f 71f
2:30 29 36 mph 1009.8mb 70f 71f
2:24 32 38 mph 1009.8mb 70f 71f
2:18 26 37 mph 1009.9mb 70f 71f
2:12 24 41 mph 1009.9mb 70f 71f
2:06 29 40 mph 1009.9mb 70f 71f
2:00 26 31 mph 1009.8mb 70f 71f
1:54 25 31 mph 1009.9mb 70f 71f
1:48 32 39 mph 1009.8mb 70f 71f
1:42 24 33 mph 1010mb 70f 71f
1:36 26 36 mph 1009.9mb 70f 71f
1:30 29 39 mph 1009.7mb 70f 71f
1:24 26 37 mph 1009.9mb 70f 71f
1:18 28 33 mph 1010mb 70f 71f
1:12 30 41 mph 1010mb 70f 71f
1:06 24 39 mph 1010.1mb 70f 71f
1:00 24 30 mph 1010mb 70f 71f
12:54 23 38 mph 1010.1mb 70f 71f
12:48 25 38 mph 1010mb 70f 71f
12:42 24 32 mph 1009.9mb 69f 71f
12:36 32 41 mph 1009.8mb 69f 72f
12:30 29 38 mph 1009.9mb 69f 72f
12:24 26 31 mph 1009.9mb 69f 72f
12:18 26 38 mph 1010mb 69f 72f
12:12 23 39 mph 1009.9mb 69f 71f
12:06 26 33 mph 1009.8mb 69f 71f
12:00 29 34 mph 1009.8mb 69f 71f
Qua 09/20 11:54 24 32 mph 1009.9mb 69f 71f
11:48 24 34 mph - - -
11:42 22 33 mph 1009.9mb 69f 71f
11:36 25 31 mph 1009.9mb 69f 71f
11:30 24 33 mph 1009.9mb 70f 71f
11:24 26 34 mph 1009.9mb 70f 71f
11:18 28 37 mph 1009.9mb 70f 71f
11:12 23 37 mph 1010mb 70f 71f
11:06 26 38 mph 1009.9mb 70f 71f
11:00 24 29 mph 1009.9mb 69f 71f
10:54 28 34 mph 1010.1mb 69f 71f
10:48 25 32 mph 1010.2mb 69f 71f
10:42 22 30 mph 1010.2mb 69f 71f
10:36 20 31 mph 1010.2mb 69f 71f
10:30 22 26 mph 1010.2mb 69f 71f
10:24 20 26 mph 1010.3mb 69f 71f
10:18 18 29 mph 1010.2mb 69f 71f
10:12 18 23 mph 1010.3mb 69f 70f
10:06 20 25 mph 1010.3mb 69f 70f
10:00 22 26 mph 1010.2mb 69f 70f
9:54 16 22 mph 1010.3mb 69f 70f
9:48 16 25 mph 1010.3mb - -
9:42 16 21 mph 1010.2mb 69f 70f
9:36 16 22 mph 1010.1mb 69f 70f
9:30 15 20 mph 1010.1mb 69f 70f
9:24 17 21 mph 1010mb 69f 70f
9:18 16 20 mph 1010.1mb 69f 69f
9:12 16 24 mph 1009.9mb 69f 70f
9:06 20 26 mph 1009.8mb 69f 70f
9:00 18 28 mph 1009.8mb 69f 70f
8:54 23 30 mph 1009.8mb 69f 70f
8:48 22 31 mph - - -
8:42 21 28 mph 1009.8mb 69f 70f
8:36 22 31 mph 1009.8mb 69f 70f
8:30 21 29 mph 1009.9mb 69f 69f
8:24 23 31 mph 1009.9mb 69f 70f
8:18 23 33 mph - - -
8:12 23 32 mph 1009.8mb 69f 69f
8:06 29 39 mph 1009.8mb 69f 70f
8:00 25 30 mph 1009.9mb 69f 69f
7:54 23 29 mph 1009.9mb 69f 69f
7:48 23 30 mph 1009.9mb 69f -
7:42 22 33 mph 1010mb 69f 69f
7:36 21 29 mph 1010.1mb 69f 69f
7:30 23 29 mph 1010.1mb 69f 69f
7:24 24 34 mph 1010mb 69f 69f
7:18 25 31 mph 1009.9mb - -
7:12 24 34 mph 1010mb 69f 69f
7:06 24 33 mph 1009.8mb 69f 69f
7:00 22 39 mph 1009.8mb 69f 69f
6:54 28 36 mph 1009.8mb 70f 69f
6:48 29 37 mph 1009.6mb - -
6:42 28 33 mph 1009.5mb 70f 69f
6:36 28 34 mph 1009.6mb 70f 69f
6:30 22 34 mph 1009.6mb 70f 69f
6:24 26 34 mph 1009.6mb 70f 69f
6:18 24 30 mph 1009.5mb 70f 69f
6:12 24 39 mph 1009.5mb 70f 69f
6:06 26 34 mph 1009.4mb 70f 68f
6:00 24 33 mph 1009.4mb 70f 68f
5:54 29 43 mph 1009.2mb 70f 68f
5:48 25 36 mph - - -
5:42 26 36 mph 1009.2mb 70f 68f
5:36 28 38 mph 1009.2mb 70f 68f
5:30 32 38 mph 1009mb 70f 68f
5:24 32 39 mph 1009mb 70f 68f
5:18 26 37 mph 1009.1mb 70f 68f
5:12 26 38 mph 1009.1mb 70f 68f
5:06 26 33 mph 1009mb 70f 68f
5:00 24 36 mph 1009mb 70f 68f
4:54 28 33 mph 1009mb 70f 69f
4:48 28 33 mph 1008.9mb 70f 69f
4:42 25 36 mph 1008.9mb 70f 69f
4:36 26 37 mph 1008.7mb 70f 68f
4:30 28 34 mph 1008.6mb 70f 68f
4:24 26 38 mph 1008.7mb 70f 68f
4:18 25 31 mph 1008.6mb 70f 68f
4:12 25 37 mph 1008.6mb 70f 68f
4:06 30 38 mph 1008.4mb 70f 69f
4:00 28 37 mph 1008.4mb 70f 69f
3:54 29 34 mph 1008.4mb 70f 69f
3:48 24 34 mph 1008.5mb 70f 69f
3:42 24 33 mph 1008.6mb 70f 69f
3:36 29 32 mph 1008.5mb 70f 68f
3:30 24 29 mph 1008.5mb 70f 68f
3:24 23 33 mph 1008.6mb 70f 68f
3:18 28 33 mph 1008.5mb 70f 68f
3:12 23 31 mph 1008.6mb 70f 68f
3:06 24 34 mph 1008.6mb 70f 68f
3:00 25 36 mph 1008.7mb 70f 68f
2:54 28 36 mph 1008.5mb 70f 68f
2:48 25 32 mph 1008.6mb 70f 68f
2:42 23 29 mph 1008.7mb 70f 68f
2:36 28 33 mph 1008.6mb 70f 68f
2:30 25 31 mph 1008.7mb 70f 68f
2:24 23 37 mph 1008.6mb 70f 68f
2:18 26 37 mph 1008.5mb 70f 68f
2:12 26 33 mph 1008.5mb 70f 68f
2:06 29 33 mph 1008.5mb 70f 68f
2:00 26 38 mph 1008.5mb 70f 68f
1:54 26 33 mph 1008.5mb 70f 68f
1:48 23 31 mph 1008.6mb 70f 68f
1:42 25 34 mph 1008.5mb 70f 68f
1:36 28 33 mph 1008.4mb 70f 68f
1:30 25 32 mph 1008.4mb 70f 68f
1:24 26 33 mph 1008.4mb 70f 68f
1:18 25 34 mph 1008.3mb 70f 68f
1:12 24 33 mph 1008.3mb 70f 68f
1:06 26 33 mph 1008.2mb 70f 68f
1:00 26 34 mph 1008.3mb 70f 68f
12:54 29 36 mph 1008.2mb 70f 68f
12:48 28 36 mph 1008.3mb 70f 68f
12:42 26 36 mph 1008.4mb 70f 68f
12:36 22 34 mph 1008.8mb 70f 68f
12:30 24 33 mph 1008.7mb 70f 68f
12:24 24 30 mph 1008.8mb 70f 68f
12:18 25 33 mph 1008.9mb 70f 68f
12:12 25 36 mph 1008.9mb 70f 68f
12:06 26 32 mph 1008.8mb 70f 68f
12:00 25 30 mph 1008.7mb 70f 68f
11:54 23 32 mph 1008.8mb 70f 68f
11:48 26 36 mph 1008.7mb 70f 68f
11:42 28 34 mph 1008.8mb 70f 68f
11:36 26 36 mph 1008.7mb 70f 68f
11:30 29 36 mph 1008.6mb 70f 68f
11:24 23 33 mph 1008.7mb 70f 68f
11:18 30 34 mph 1008.6mb 70f 68f
11:12 25 32 mph 1008.8mb 70f 68f
11:06 29 36 mph 1008.7mb 70f 68f
11:00 24 38 mph 1008.9mb 70f 68f
10:54 31 36 mph 1008.7mb 70f 68f
10:48 29 38 mph 1008.9mb 70f 68f
10:42 25 33 mph 1009mb 70f 68f
10:36 26 36 mph 1009mb 70f 68f
10:30 26 32 mph 1008.9mb 70f 68f
10:24 24 32 mph 1009.1mb 70f 68f
10:18 24 36 mph 1009.1mb 70f 68f
10:12 26 37 mph 1009mb 70f 68f
10:06 23 34 mph 1009.1mb 70f 68f
10:00 25 33 mph 1009.1mb 70f 67f
9:54 22 33 mph 1009.4mb 70f 68f
9:48 22 29 mph 1009.4mb 70f 67f
9:42 28 33 mph 1009.3mb 70f 67f
9:36 22 30 mph 1009.5mb 70f 67f
9:30 21 31 mph 1009.6mb 70f 67f
9:24 26 31 mph 1009.5mb 70f 67f
9:18 23 30 mph 1009.6mb 70f 67f
9:12 24 29 mph 1009.6mb 70f 67f
9:06 18 31 mph 1009.7mb 70f 67f
9:00 17 28 mph 1009.6mb 70f 67f
8:54 21 33 mph 1009.5mb 70f 67f
8:48 26 37 mph 1009.2mb 70f 67f
8:42 25 32 mph 1009.2mb 69f 66f
8:36 23 29 mph 1009.2mb 69f 66f
8:30 23 31 mph 1009.4mb 69f 66f
8:24 24 29 mph 1009.5mb 69f 66f
8:18 21 29 mph 1009.5mb 69f 66f
8:12 23 31 mph 1009.4mb 69f 66f
8:06 24 30 mph 1009.3mb 69f 66f
8:00 25 32 mph 1009.3mb 69f 66f
7:54 23 34 mph 1009.1mb 69f 66f
7:48 22 30 mph 1009.3mb 69f 66f
7:42 23 32 mph 1009.3mb 70f 66f
7:36 23 33 mph 1009.3mb 70f 66f
7:30 23 29 mph 1009.3mb 70f 66f
7:24 24 30 mph 1009.2mb 70f 66f
7:18 22 31 mph 1009.4mb 70f 66f
7:12 24 28 mph 1009.3mb 70f 66f
7:06 25 31 mph 1009.2mb 70f 66f
7:00 24 31 mph 1009.1mb 70f 66f
6:54 22 31 mph 1009.2mb 70f 66f
6:48 23 30 mph 1009.2mb 70f 66f
6:42 23 30 mph 1009.2mb 70f 66f
6:36 21 29 mph 1009.3mb 70f 66f
6:30 22 26 mph 1009.3mb 70f 66f
6:24 23 25 mph 1009.3mb 70f 66f
6:18 21 28 mph 1009.4mb 70f 66f
6:12 22 28 mph 1009.4mb 70f 66f
6:06 20 28 mph 1009.4mb 70f 66f
6:00 22 30 mph 1009.3mb 70f 66f
5:54 21 29 mph 1009.1mb 70f 66f
5:48 22 28 mph 1009.2mb 70f 66f
5:42 21 25 mph 1009.1mb 70f 66f
5:36 20 23 mph 1009.3mb 70f 66f
5:30 20 28 mph 1009.4mb 70f 66f
5:24 20 25 mph 1009.3mb 70f 66f
5:18 23 32 mph 1009.4mb 70f 66f
5:12 21 30 mph 1009.4mb 70f 66f
5:06 22 30 mph 1009.3mb 70f 66f